When you browse on this site, cookies collect data to enhance your experience and personalize the content and advertising you see.
Visit our Privacy Policy to learn more. By continuing to use the site, you agree to this use of cookies and data.
  • In Romania
  • List of Countries
  • For 7 days
  • Water Temperature
  • Satellite Maps
  • Weather Map
  • Weather Widgets
  • user-avatar
    Login

    Hourly Weather Krzczonow

    Today, 23 February, Saturday

    Time Temperature Precipitation Wind Pressure Humidity
    00:00 -4°C° 0 mm 2 mps 760 mmHg 56%
    01:00 -5°C° 0 mm 2 mps 761 mmHg 53%
    02:00 -3°C° 0 mm 1 mps 760 mmHg 51%
    03:00 -3°C° 0 mm 1 mps 760 mmHg 50%
    04:00 -3°C° 0 mm 1 mps 760 mmHg 49%
    05:00 -3°C° 0 mm 1 mps 760 mmHg 49%
    06:00 -4°C° 0 mm 0 mps 760 mmHg 48%
    07:00 -5°C° 0 mm 0 mps 761 mmHg 48%
    08:00 -4°C° 0 mm 0 mps 761 mmHg 43%
    09:00 -2°C° 0 mm 1 mps 761 mmHg 38%
    10:00 -1°C° 0 mm 1 mps 761 mmHg 33%
    11:00 0°C° 0 mm 1 mps 760 mmHg 30%
    12:00 -1°C° 0 mm 2 mps 760 mmHg 27%
    13:00 -1°C° 0 mm 2 mps 761 mmHg 24%
    14:00 -1°C° 0 mm 2 mps 760 mmHg 25%
    15:00 -1°C° 0 mm 2 mps 759 mmHg 26%
    16:00 -1°C° 0 mm 2 mps 759 mmHg 27%
    17:00 0°C° 0 mm 1 mps 759 mmHg 31%
    18:00 0°C° 0 mm 1 mps 759 mmHg 35%
    19:00 -1°C° 0 mm 1 mps 759 mmHg 39%
    20:00 -1°C° 0 mm 1 mps 759 mmHg 39%
    21:00 -1°C° 0 mm 1 mps 758 mmHg 39%
    22:00 -1°C° 0 mm 1 mps 758 mmHg 38%
    23:00 -1°C° 0 mm 1 mps 758 mmHg 37%

    Tomorrow, 24 February, Sunday

    Time Temperature Precipitation Wind Pressure Humidity
    00:00 -1°C° 0 mm 1 mps 758 mmHg 36%
    01:00 -1°C° 0 mm 1 mps 758 mmHg 34%
    02:00 -1°C° 0 mm 1 mps 758 mmHg 34%
    03:00 0°C° 0 mm 1 mps 757 mmHg 33%
    04:00 -1°C° 0 mm 0 mps 757 mmHg 32%
    05:00 -1°C° 0 mm 0 mps 757 mmHg 31%
    06:00 0°C° 0 mm 1 mps 757 mmHg 31%
    07:00 +1°C° 0 mm 1 mps 757 mmHg 31%
    08:00 +1°C° 0 mm 1 mps 757 mmHg 31%
    09:00 +2°C° 0 mm 1 mps 757 mmHg 30%
    10:00 +3°C° 0 mm 1 mps 757 mmHg 30%
    11:00 +5°C° 0 mm 1 mps 757 mmHg 30%
    12:00 +6°C° 0 mm 1 mps 757 mmHg 30%
    13:00 +6°C° 0 mm 2 mps 756 mmHg 29%
    14:00 +6°C° 0 mm 2 mps 756 mmHg 35%
    15:00 +6°C° 0 mm 2 mps 756 mmHg 40%
    16:00 +7°C° 0 mm 1 mps 756 mmHg 46%
    17:00 +6°C° 0 mm 1 mps 756 mmHg 48%
    18:00 +4°C° 0 mm 1 mps 756 mmHg 51%
    19:00 +3°C° 0 mm 1 mps 756 mmHg 54%
    20:00 +3°C° 0 mm 1 mps 756 mmHg 55%
    21:00 +3°C° 0 mm 1 mps 756 mmHg 56%
    22:00 +3°C° 0 mm 1 mps 756 mmHg 57%
    23:00 +2°C° 0 mm 2 mps 756 mmHg 58%

    Day after tomorrow, 25 February, Monday

    Time Temperature Precipitation Wind Pressure Humidity
    00:00 +2°C° 0 mm 2 mps 756 mmHg 59%
    01:00 +1°C° 0 mm 2 mps 756 mmHg 59%
    02:00 +2°C° 0 mm 2 mps 756 mmHg 60%
    03:00 +2°C° 0 mm 2 mps 756 mmHg 61%
    04:00 +2°C° 0 mm 2 mps 755 mmHg 61%
    05:00 +2°C° 0 mm 2 mps 755 mmHg 63%
    06:00 +2°C° 0 mm 2 mps 755 mmHg 65%
    07:00 +1°C° 0 mm 2 mps 755 mmHg 66%
    08:00 +3°C° 0 mm 2 mps 755 mmHg 61%
    09:00 +4°C° 0 mm 3 mps 756 mmHg 57%
    10:00 +7°C° 0 mm 3 mps 756 mmHg 52%
    11:00 +8°C° 0 mm 3 mps 755 mmHg 50%
    12:00 +8°C° 0 mm 4 mps 755 mmHg 48%
    13:00 +10°C° 0 mm 4 mps 755 mmHg 46%
    14:00 +8°C° 0 mm 4 mps 755 mmHg 49%
    15:00 +9°C° 0 mm 3 mps 754 mmHg 52%
    16:00 +9°C° 0 mm 3 mps 754 mmHg 56%
    17:00 +7°C° 0 mm 3 mps 754 mmHg 61%
    18:00 +5°C° 0 mm 3 mps 754 mmHg 66%
    19:00 +3°C° 0 mm 3 mps 754 mmHg 71%
    20:00 +3°C° 0 mm 3 mps 754 mmHg 74%
    21:00 +3°C° 0 mm 3 mps 754 mmHg 76%
    22:00 +2°C° 0 mm 3 mps 754 mmHg 79%
    23:00 +2°C° 0 mm 3 mps 754 mmHg 80%

    26 February, Tuesday

    Time Temperature Precipitation Wind Pressure Humidity
    00:00 +2°C° 0 mm 3 mps 754 mmHg 82%
    01:00 +2°C° 0 mm 3 mps 754 mmHg 83%
    02:00 +2°C° 0 mm 3 mps 753 mmHg 82%
    03:00 +2°C° 0 mm 3 mps 753 mmHg 81%
    04:00 +2°C° 0 mm 3 mps 753 mmHg 81%
    05:00 +2°C° 0 mm 3 mps 752 mmHg 83%
    06:00 +2°C° 0 mm 3 mps 752 mmHg 85%
    07:00 +1°C° 0 mm 4 mps 752 mmHg 87%
    08:00 +4°C° 0 mm 4 mps 752 mmHg 80%
    09:00 +6°C° 0 mm 5 mps 752 mmHg 73%
    10:00 +8°C° 0 mm 6 mps 752 mmHg 66%
    11:00 +8°C° 0 mm 6 mps 751 mmHg 62%
    12:00 +9°C° 0 mm 6 mps 751 mmHg 58%
    13:00 +10°C° 0 mm 7 mps 751 mmHg 54%
    14:00 +10°C° 0 mm 7 mps 751 mmHg 56%
    15:00 +10°C° 0 mm 6 mps 751 mmHg 58%
    16:00 +9°C° 0 mm 6 mps 751 mmHg 60%
    17:00 +8°C° 0 mm 5 mps 751 mmHg 64%
    18:00 +7°C° 0 mm 5 mps 751 mmHg 68%
    19:00 +6°C° 0 mm 4 mps 751 mmHg 72%
    20:00 +5°C° 0 mm 4 mps 751 mmHg 75%
    21:00 +5°C° 0 mm 4 mps 751 mmHg 77%
    22:00 +4°C° 0 mm 3 mps 752 mmHg 80%
    23:00 +4°C° 0 mm 3 mps 752 mmHg 83%

    27 February, Wednesday

    Time Temperature Precipitation Wind Pressure Humidity
    00:00 +4°C° 0 mm 2 mps 752 mmHg 85%
    01:00 +4°C° 0 mm 2 mps 752 mmHg 88%
    02:00 +3°C° 0 mm 2 mps 751 mmHg 88%
    03:00 +3°C° 0 mm 2 mps 751 mmHg 88%
    04:00 +4°C° 0 mm 1 mps 751 mmHg 89%
    05:00 +4°C° 0 mm 1 mps 751 mmHg 88%
    06:00 +3°C° 0 mm 2 mps 751 mmHg 87%
    07:00 +3°C° 0 mm 2 mps 751 mmHg 87%
    08:00 +5°C° 0 mm 2 mps 751 mmHg 78%
    09:00 +7°C° 0 mm 2 mps 751 mmHg 69%
    10:00 +9°C° 0 mm 3 mps 750 mmHg 60%
    11:00 +10°C° 0 mm 3 mps 750 mmHg 55%
    12:00 +12°C° 0 mm 4 mps 750 mmHg 50%
    13:00 +13°C° 0 mm 4 mps 749 mmHg 45%
    14:00 +13°C° 0 mm 4 mps 748 mmHg 46%
    15:00 +13°C° 0 mm 4 mps 748 mmHg 47%
    16:00 +13°C° 0 mm 4 mps 747 mmHg 48%
    17:00 +11°C° 0 mm 3 mps 747 mmHg 53%
    18:00 +9°C° 0 mm 3 mps 747 mmHg 58%
    19:00 +8°C° 0 mm 3 mps 747 mmHg 63%
    20:00 +7°C° 0 mm 3 mps 746 mmHg 63%
    21:00 +7°C° 0 mm 3 mps 746 mmHg 62%
    22:00 +7°C° 0 mm 3 mps 746 mmHg 62%
    23:00 +7°C° 0 mm 3 mps 745 mmHg 61%

    28 February, Thursday

    Time Temperature Precipitation Wind Pressure Humidity
    00:00 +7°C° 0 mm 3 mps 744 mmHg 59%
    01:00 +5°C° 0 mm 3 mps 744 mmHg 58%
    02:00 +5°C° 0 mm 3 mps 743 mmHg 59%
    03:00 +5°C° 0 mm 4 mps 743 mmHg 59%
    04:00 +5°C° 0 mm 4 mps 742 mmHg 59%
    05:00 +5°C° 0 mm 4 mps 741 mmHg 62%
    06:00 +5°C° 0 mm 5 mps 741 mmHg 65%
    07:00 +5°C° 0 mm 5 mps 741 mmHg 68%
    08:00 +5°C° 0 mm 6 mps 741 mmHg 68%
    09:00 +6°C° 0 mm 7 mps 741 mmHg 68%
    10:00 +7°C° 0 mm 8 mps 740 mmHg 69%
    11:00 +8°C° 0 mm 9 mps 740 mmHg 68%
    12:00 +8°C° 0 mm 9 mps 740 mmHg 67%
    13:00 +8°C° 0 mm 9 mps 740 mmHg 66%
    14:00 +8°C° 0 mm 9 mps 740 mmHg 67%
    15:00 +8°C° 0 mm 9 mps 740 mmHg 67%
    16:00 +7°C° 0 mm 9 mps 740 mmHg 68%
    17:00 +7°C° 0 mm 8 mps 740 mmHg 71%
    18:00 +6°C° 0 mm 7 mps 740 mmHg 73%
    19:00 +6°C° 0 mm 7 mps 741 mmHg 76%
    20:00 +5°C° 0.1 mm 7 mps 741 mmHg 74%
    21:00 +5°C° 0.1 mm 7 mps 741 mmHg 72%
    22:00 +5°C° 0.1 mm 8 mps 741 mmHg 70%
    23:00 +4°C° 0 mm 7 mps 741 mmHg 73%
    Show more